Content
SEND FEEDBACK

Daily
Averages
Monthly
Summary
United States of America

NEW LONDON, CONNECTICUT


Home > North America > United States > Connecticut
Elevation: 4 feet     Latitude: 41 21N     Longitude: 072 03W

WEATHER
 
SELECT A DAY
Number of Records: 191,830;   Date Range: 1/1/95 - 12/19/14
 
SHARE

PRINT THIS DATA

[ ← Previous Day ]
WEATHER ALMANAC - JANUARY 31, 2013
[ Next Day → ]
[ °C ]   °F
Weather ElementAverageHighLow
Temperature47.7 °F57.2 °F (6:03 am)32 °F (11:56 pm)
Dewpoint38.6 °F57.2 °F (6:03 am)8.1 °F (9:56 pm)
Humidity75.3 %100 % (12:56 am)34 % (2:56 pm)
Barometer29.30 in29.68 in (11:56 pm)29.08 in (7:56 am)
Wind Speed24.2 mph35.7 mph (6:03 am)
Wind Gust54.1 mph (6:03 am)
Weather ElementAverage
Visibility5.9 mi
Wind DirectionSW (224.4 °)

Weather ElementTotal
Precipitation1.29 in
Heating Degree Days20.4 (Base 65)
Averaged from 34 records on January 31, 2013
WEATHER CONDITIONS BREAKOUT
WIND DIRECTION BREAKOUT
WEATHER BY HOUR - JANUARY 31, 2013
[ °C ]   °F
Local TimeTemperatureDewpointHumidityBarometerVisibilityWind DirectionWind SpeedGust SpeedPrecipitationEventsConditions
12:56 AM50.0 °F50.0 °F100 %29.43 in3.0 miSouth (170°)24.2 mphOvercast
1:47 AM50.0 °F50.0 °F100 %29.39 in3.0 miSouth (170°)20.7 mphOvercast
1:56 AM50.0 °F50.0 °F100 %29.39 in3.0 miSouth (170°)20.7 mphOvercast
2:56 AM52.0 °F52.0 °F100 %29.31 in4.0 miSouth (180°)24.2 mph33.4 mphOvercast
3:39 AM51.8 °F51.8 °F100 %29.26 in3.0 miSouth (170°)19.6 mphOvercast
3:56 AM51.1 °F51.1 °F100 %29.23 in3.0 miSouth (170°)23.0 mph0.00 inRainLight Rain
4:46 AM51.8 °F51.8 °F100 %29.16 in2.5 miSouth (180°)29.9 mph38.0 mph0.01 inRainLight Rain
4:56 AM52.0 °F52.0 °F100 %29.15 in2.5 miSouth (180°)31.1 mph0.02 inRainLight Rain
5:25 AM53.6 °F53.6 °F100 %29.09 in1.5 miSouth (180°)33.4 mph44.9 mph0.06 inRainRain
5:37 AM53.6 °F53.6 °F100 %29.09 in1.0 miSouth (180°)32.2 mph40.3 mph0.14 inRainHeavy Rain
5:56 AM55.0 °F55.0 °F100 %29.14 in1.0 miSW (230°)31.1 mph42.6 mph0.32 inRainHeavy Rain
6:03 AM57.2 °F57.2 °F100 %29.14 in0.8 miSW (220°)35.7 mph54.1 mph0.13 inRainHeavy Rain
6:13 AM55.4 °F55.4 °F100 %29.14 in1.8 miSW (220°)26.5 mph42.6 mph0.15 inRainRain
6:21 AM53.6 °F53.6 °F100 %29.13 in3.0 miSW (220°)27.6 mph43.7 mph0.15 inRainLight Rain
6:30 AM53.6 °F53.6 °F100 %29.12 in4.0 miSW (220°)23.0 mph36.8 mph0.15 inRainLight Rain
6:56 AM51.1 °F51.1 °F100 %29.11 in3.0 miSSW (210°)17.3 mph28.8 mph0.16 inRainLight Rain
7:56 AM50.0 °F50.0 °F100 %29.08 in4.0 miSSW (200°)19.6 mph0.00 inOvercast
8:38 AM51.8 °F50.0 °F94 %29.08 in5.0 miSW (230°)32.2 mph39.1 mph0.00 inRainLight Rain
8:56 AM50.0 °F42.1 °F74 %29.11 in7.0 miWSW (240°)23.0 mph34.5 mph0.00 inOvercast
9:56 AM48.0 °F37.9 °F68 %29.18 in8.0 miWSW (250°)23.0 mph36.8 mphOvercast
10:56 AM48.9 °F37.9 °F66 %29.23 in9.0 miWest (260°)21.9 mph34.5 mphMostly Cloudy
11:56 AM51.1 °F28.0 °F41 %29.26 in10.0 miWest (280°)21.9 mph32.2 mphClear
12:56 PM50.0 °F27.0 °F41 %29.29 in10.0 miWest (270°)26.5 mph39.1 mphMostly Cloudy
1:56 PM46.9 °F28.0 °F48 %29.33 in10.0 miWSW (240°)27.6 mph36.8 mphPartly Cloudy
2:56 PM46.4 °F19.4 °F34 %29.37 in10.0 miWest (260°)20.7 mph29.9 mphScattered Clouds
3:56 PM43.0 °F26.1 °F51 %29.42 in10.0 miWSW (250°)18.4 mph34.5 mphMostly Cloudy
4:56 PM41.0 °F27.0 °F57 %29.44 in9.0 miWSW (250°)24.2 mph35.7 mphScattered Clouds
5:56 PM41.0 °F19.0 °F41 %29.49 in10.0 miWest (260°)23.0 mph38.0 mphMostly Cloudy
6:56 PM39.0 °F16.0 °F39 %29.55 in10.0 miWest (260°)24.2 mph33.4 mphOvercast
7:56 PM37.0 °F15.1 °F41 %29.59 in10.0 miWest (260°)20.7 mph32.2 mphMostly Cloudy
8:56 PM35.6 °F12.2 °F38 %29.62 in10.0 miWest (260°)20.7 mph32.2 mphOvercast
9:56 PM34.0 °F8.1 °F34 %29.65 in10.0 miWest (270°)17.3 mph28.8 mphClear
10:56 PM33.1 °F12.0 °F42 %29.66 in10.0 miWest (260°)18.4 mph29.9 mphClear
11:56 PM32.0 °F15.1 °F50 %29.68 in10.0 miWest (260°)19.6 mph26.5 mphClear
Hourly data recorded from KGON, located miles away from New London, Connecticut







STORIES FROM OUR PARTNERS